Weather History for Rock Springs, WY

Change the Weather History Date:

Sunday, July 7, 2013

  Actual Average Record
Temperature  
Mean Temperature 68 °F 68 °F  
Max Temperature 84 °F 83 °F 95 °F (1989)
Min Temperature 52 °F 53 °F 38 °F (1952)
Degree Days  
Heating Degree Days 0 1  
Month to date heating degree days 0 10  
Since 1 June heating degree days 62 177  
Since 1 July heating degree days 0 10  
Cooling Degree Days 3 4  
Month to date cooling degree days 49 24  
Year to date cooling degree days 143 60  
Since 1 June cooling degree days 142 59  
Growing Degree Days 18 (Base 50)    
Moisture  
Dew Point 44 °F    
Average Humidity 47    
Maximum Humidity 77    
Minimum Humidity 17    
Precipitation  
Precipitation 0.00 in 0.02 in 0.14 in (2001)
Month to date precipitation 0.18 0.13  
Year to date precipitation 1.67 4.65  
Sea Level Pressure  
Sea Level Pressure 29.94 in    
Wind  
Wind Speed 10 mph (SSW)    
Max Wind Speed 37 mph    
Max Gust Speed 46 mph    
Visibility 10 miles    
Events      
T = Trace of Precipitation, MM = Missing Value Source: NWS Daily Summary

Daily Weather History Graph

Daily Weather History Graph

Search for Another Location

Airport:

Trip Planner

Search our weather history database for the weather conditions in past years. The results will help you decide how hot, cold, wet, or windy it might be!

Date:

Astronomy

Jul. 07, 2013 Rise Set
Actual Time 5:49 AM MDT 8:52 PM MDT
Civil Twilight 5:15 AM MDT 9:26 PM MDT
Nautical Twilight 4:33 AM MDT 10:08 PM MDT
Astronomical Twilight 3:42 AM MDT 10:59 PM MDT
Moon 5:29 AM MDT (7/7) 8:17 PM MDT (7/7)
Length of Visible Light 16h 10m
Length of Day
15h 03m
Waning Crescent, 0% of the Moon is Illuminated
Jul 7
Waning Crescent
Jul 8
New
Jul 15
First Quarter
Jul 22
Full
Jul 29
Last Quarter

Hourly Weather History & Observations

Time (MDT) Temp. Dew Point Humidity Pressure Visibility Wind Dir Wind Speed Gust Speed Precip Events Conditions
12:54 AM 57.9 °F 50.0 °F 75% 29.91 in 10.0 mi SSE 5.8 mph - 0.00 in   Clear
1:54 AM 59.0 °F 46.9 °F 64% 29.89 in 10.0 mi South 3.5 mph - N/A   Clear
2:54 AM 55.0 °F 48.0 °F 77% 29.91 in 10.0 mi South 8.1 mph - N/A   Clear
3:54 AM 55.9 °F 46.9 °F 72% 29.91 in 10.0 mi SSE 8.1 mph - N/A   Clear
4:54 AM 55.9 °F 46.9 °F 72% 29.94 in 10.0 mi Variable 4.6 mph - N/A   Clear
5:54 AM 53.1 °F 46.9 °F 80% 29.95 in 10.0 mi SSW 3.5 mph - N/A   Clear
6:54 AM 55.9 °F 48.9 °F 77% 29.94 in 10.0 mi Calm Calm - N/A   Clear
7:54 AM 59.0 °F 48.9 °F 69% 29.96 in 10.0 mi Calm Calm - N/A   Clear
8:54 AM 64.9 °F 48.0 °F 54% 29.96 in 10.0 mi South 5.8 mph - N/A   Clear
9:54 AM 68.0 °F 46.9 °F 47% 29.94 in 10.0 mi Variable 3.5 mph - N/A   Clear
10:54 AM 73.9 °F 43.0 °F 33% 29.94 in 10.0 mi Variable 3.5 mph - N/A   Clear
11:54 AM 78.1 °F 39.9 °F 25% 29.94 in 10.0 mi South 9.2 mph - N/A   Clear
12:54 PM 82.0 °F 37.0 °F 20% 29.91 in 10.0 mi West 9.2 mph - N/A   Clear
1:54 PM 82.9 °F 34.0 °F 17% 29.89 in 10.0 mi SSW 9.2 mph 16.1 mph N/A   Clear
2:54 PM 79.0 °F 34.0 °F 20% 29.91 in 10.0 mi South 24.2 mph 35.7 mph N/A   Partly Cloudy
3:54 PM 79.0 °F 35.1 °F 20% 29.88 in 10.0 mi South 31.1 mph 42.6 mph N/A   Scattered Clouds
4:54 PM 78.1 °F 36.0 °F 22% 29.92 in 10.0 mi SSW 23.0 mph 32.2 mph N/A   Partly Cloudy
5:54 PM 75.0 °F 37.0 °F 25% 29.96 in 10.0 mi WNW 17.3 mph 21.9 mph N/A   Scattered Clouds
6:54 PM 66.0 °F 46.9 °F 50% 30.01 in 10.0 mi West 31.1 mph 39.1 mph N/A   Clear
7:54 PM 64.9 °F 46.0 °F 50% 30.00 in 10.0 mi WSW 12.7 mph 23.0 mph N/A   Partly Cloudy
8:54 PM 64.9 °F 45.0 °F 48% 29.95 in 10.0 mi South 6.9 mph - N/A   Partly Cloudy
9:54 PM 62.1 °F 43.0 °F 50% 29.96 in 10.0 mi SW 4.6 mph - N/A   Clear
10:54 PM 62.1 °F 44.1 °F 52% 29.95 in 10.0 mi West 3.5 mph - N/A   Clear
11:54 PM 61.0 °F 45.0 °F 56% 29.98 in 10.0 mi WNW 12.7 mph - N/A   Clear